Home   Weather   USA   Austin   Past weeks
Flag for USA

Past Weather in Austin, Texas, USA — January 2018

Currently: 75 °F. Mild. (Weather station: Camp Mabry / Austin City, USA). See more current weather

January 2018 Weather in Austin — Graph

°F

High & Low Weather Summary for January 2018

 TemperatureHumidityPressure
High72 °F (Jan 21, 2:28 pm)100% (Jan 19, 10:30 pm)30.81 "Hg (Jan 19, 10:30 pm)
Low18 °F (Jan 17, 6:51 am)14% (Jan 23, 1:51 pm)29.72 "Hg (Jan 10, 5:51 pm)
Average49 °F60%30.29 "Hg
* Reported Jan 1 12:51 am — Jan 31 11:51 pm, Austin. Weather by CustomWeather, © 2023

Note: Actual official high and low records may vary slightly from our data, if they occured in-between our weather recording intervals... More about our weather records

Austin Weather History for January 1, 2018

Scroll right to see more
 ConditionsComfort  
Time TempWeatherWind HumidityBarometerVisibility
12:51 am
Mon, Jan 1
26 °FMostly cloudy.8 mph74%30.66 "Hg10 mi
1:35 am26 °FMostly cloudy.9 mph69%30.64 "Hg10 mi
1:51 am26 °FOvercast.12 mph66%30.67 "Hg10 mi
2:51 am26 °FOvercast.8 mph63%30.70 "Hg10 mi
3:51 am26 °FOvercast.9 mph63%30.71 "Hg10 mi
4:51 am26 °FOvercast.9 mph60%30.71 "Hg10 mi
5:51 am26 °FOvercast.9 mph60%30.72 "Hg10 mi
6:51 am26 °FMostly cloudy.6 mph57%30.74 "Hg10 mi
7:51 am25 °FOvercast.9 mph55%30.76 "Hg10 mi
8:51 am25 °FOvercast.8 mph55%30.78 "Hg10 mi
9:51 am26 °FMostly cloudy.10 mph55%30.80 "Hg10 mi
10:51 am26 °FOvercast.10 mph52%30.81 "Hg10 mi
11:51 am29 °FPartly sunny.5 mph47%30.78 "Hg10 mi
12:51 pm30 °FOvercast.7 mph47%30.75 "Hg10 mi
1:51 pm30 °FOvercast.8 mph49%30.72 "Hg10 mi
2:51 pm31 °FOvercast.6 mph47%30.70 "Hg10 mi
3:51 pm31 °FOvercast.6 mph47%30.68 "Hg10 mi
4:51 pm32 °FOvercast.8 mph47%30.67 "Hg10 mi
5:51 pm30 °FOvercast.6 mph51%30.66 "Hg10 mi
6:51 pm29 °FOvercast.9 mph54%30.68 "Hg10 mi
7:51 pm30 °FOvercast.7 mph49%30.68 "Hg10 mi
8:51 pm29 °FOvercast.8 mph51%30.68 "Hg10 mi
9:51 pm29 °FOvercast.6 mph49%30.69 "Hg10 mi
10:51 pm29 °FOvercast.3 mph49%30.68 "Hg10 mi
11:51 pm29 °FOvercast.5 mph49%30.67 "Hg10 mi
Weather by CustomWeather, © 2023

See weather overview